EST,Max TemperatureF,Mean TemperatureF,Min TemperatureF,Max Dew PointF,MeanDew PointF,Min DewpointF,Max Humidity, Mean Humidity, Min Humidity, Max Sea Level PressureIn, Mean Sea Level PressureIn, Min Sea Level PressureIn, Max VisibilityMiles, Mean VisibilityMiles, Min VisibilityMiles, Max Wind SpeedMPH, Mean Wind SpeedMPH, Max Gust SpeedMPH,PrecipitationIn, CloudCover, Events, WindDirDegrees
2013-2-1,44,34,23,25,9,0,56,35,19,30.37,30.18,29.93,10,10,10,22,11,29,0.00,0,,293
2013-2-2,48,32,15,36,12,3,87,47,20,30.40,30.25,30.05,10,10,10,20,4,30,0.01,3,,208
2013-2-3,51,40,30,34,27,19,87,60,28,30.03,29.95,29.86,10,10,5,10,4,21,0.00,3,,277
2013-2-4,50,36,21,27,21,18,86,52,30,30.16,30.06,30.00,10,10,9,10,3,,0.00,0,,218
2013-2-5,64,48,33,39,32,27,76,55,30,30.02,29.95,29.88,10,10,10,16,7,23,0.00,3,,244
2013-2-6,64,47,30,37,26,19,93,52,18,30.26,30.12,29.98,10,10,5,9,1,,0.00,0,,29
2013-2-7,50,44,37,43,35,21,93,74,45,30.30,30.18,29.91,10,10,4,16,8,23,0.29,3,,58
2013-2-8,57,48,39,43,37,25,87,70,46,30.09,29.89,29.81,10,10,10,16,8,22,0.39,5,,332
2013-2-9,55,40,26,25,19,12,74,45,18,30.35,30.23,30.09,10,10,10,10,3,18,0.00,0,,331
2013-2-10,55,39,23,43,23,16,93,54,21,30.47,30.36,30.21,10,10,9,10,2,,0.06,2,,134
2013-2-11,62,55,48,57,53,43,94,82,63,30.19,30.05,29.94,10,10,5,17,11,25,0.14,6,,227
2013-2-12,62,54,46,48,35,23,87,53,22,30.10,30.01,29.93,10,10,10,12,4,,0.01,1,,295
2013-2-13,50,47,44,46,43,37,93,87,71,29.94,29.77,29.65,10,8,2,13,2,21,0.10,6,,274
2013-2-14,51,40,30,34,29,25,93,66,40,30.07,30.00,29.86,10,10,9,8,2,,0.00,0,,236
2013-2-15,62,44,26,36,28,23,93,60,24,30.09,30.02,29.93,10,10,9,10,2,20,0.00,0,,236
2013-2-16,44,37,30,34,29,21,93,78,57,29.96,29.91,29.83,10,7,1,10,4,16,0.42,7,,5
2013-2-17,39,32,23,21,11,5,69,47,28,30.28,30.11,29.95,10,10,10,15,6,25,0.01,1,,299
2013-2-18,51,33,15,23,17,10,100,52,22,30.40,30.33,30.26,10,10,10,10,2,16,0.00,0,,185
2013-2-19,51,42,33,48,36,23,88,74,52,30.25,30.04,29.88,10,9,2,21,9,33,0.11,6,,224
2013-2-20,53,40,26,37,19,12,87,44,19,30.12,30.06,29.98,10,10,10,13,3,18,0.00,0,,277
2013-2-21,57,40,23,21,15,10,74,36,20,30.24,30.17,30.10,10,10,10,12,3,,0.00,0,,52
2013-2-22,44,38,33,34,31,19,93,81,37,30.33,30.23,30.11,10,7,2,12,6,18,0.16,8,,62
2013-2-23,42,38,35,39,37,34,93,89,87,30.10,29.95,29.83,10,7,2,8,3,,0.43,8,,27
2013-2-24,64,50,37,43,36,27,93,64,29,30.03,29.92,29.82,10,8,1,10,2,,0.00,3,,312
2013-2-25,42,38,35,27,22,19,65,51,39,30.20,30.12,30.04,10,10,10,15,7,21,0.00,1,,62
2013-2-26,62,48,35,59,41,25,94,83,60,30.10,29.79,29.55,10,8,4,15,9,23,0.77,7,,91
2013-2-27,57,49,41,43,37,34,93,66,44,29.82,29.74,29.66,10,10,5,15,7,18,0.00,2,,248
2013-2-28,50,42,33,34,27,21,81,55,34,29.86,29.78,29.72,10,10,10,13,5,20,0.00,4,,294